Regional Weather Roundup
Issued by NWS

Home | Current Version | Previous Version | Text Only | Print | Product List | Glossary On
Versions: 1 2 3 4 5 6 7 8 9 10 11 12 13 14 15 16 17 18 19 20 21 22 23 24 25 26 27 28 29 30 31 32 33 34 35 36 37 38 39 40 41 42 43 44 45 46 47 48 49 50
000
ASUS43 KDTX 221201
RWRMI
MICHIGAN HOURLY REGIONAL WEATHER ROUNDUP
NATIONAL WEATHER SERVICE DETROIT/PONTIAC MI
800 AM EDT SUN OCT 22 2017

NOTE: "FAIR" INDICATES FEW OR NO CLOUDS BELOW 12,000 FEET WITH NO
SIGNIFICANT WEATHER AND/OR OBSTRUCTION TO VISIBILITY.

MIZ047>049-052>055-059>063-066>070-074>076-081>083-221300-
SOUTHEAST LOWER MICHIGAN

CITY           SKY/WX    TMP DP  RH WIND       PRES   REMARKS
ADRIAN         PTCLDY    51  46  83 S5        30.14F
6HR MIN TEMP:  50; 6HR MAX TEMP:  56;

ALMA           CLEAR     57  46  65 S5        30.08R
ANN ARBOR      CLOUDY    43  42  97 CALM      30.14S
BAD AXE        CLEAR     56  47  72 S8        30.12S
CARO           CLOUDY    57  46  65 SE5       30.10F
DETROIT CITY   CLOUDY    57  52  83 S7        30.16S
6HR MIN TEMP:  53; 6HR MAX TEMP:  58;

DETROIT        CLOUDY    57  52  83 SE5       30.16S
6HR MIN TEMP:  53; 6HR MAX TEMP:  58;

FLINT          CLEAR     56  47  71 S12       30.11F
6HR MIN TEMP:  55; 6HR MAX TEMP:  62;

GROSSE ILE     CLOUDY    59  55  87 S8        30.15F
6HR MIN TEMP:  58; 6HR MAX TEMP:  60;

HILLSDALE      CLEAR     52  45  76 SE8       30.12R
HOWELL         CLEAR     54  48  78 S7        30.12S
6HR MIN TEMP:  53; 6HR MAX TEMP:  58;


CITY           SKY/WX    TMP DP  RH WIND       PRES   REMARKS
JACKSON        CLEAR     56  47  71 SE9       30.11S
6HR MIN TEMP:  56; 6HR MAX TEMP:  62;

LAMBERTVILLE   CLOUDY    57  48  73 S6        30.15S
6HR MIN TEMP:  54; 6HR MAX TEMP:  58;

LANSING        CLEAR     57  45  64 S8        30.10R
6HR MIN TEMP:  57; 6HR MAX TEMP:  63;

LAPEER         FAIR      56  46  70 SE3       30.14S
6HR MIN TEMP:  56; 6HR MAX TEMP:  61;

MASON          CLEAR     57  47  70 S10       30.11R
MONROE         CLOUDY    57  50  77 SE6       30.14S
6HR MIN TEMP:  53; 6HR MAX TEMP:  57;

PONTIAC        MOCLDY    55  50  83 S6        30.14S
6HR MIN TEMP:  51; 6HR MAX TEMP:  60;

PORT HOPE        N/A     58  47  66 S6        30.09F
6HR MIN TEMP:  57; 6HR MAX TEMP:  64;

PORT HURON     PTCLDY    52  50  93 CALM      30.17R FOG
TRI CITIES     CLEAR     59  49  69 S10       30.09S
6HR MIN TEMP:  58; 6HR MAX TEMP:  62;

MIDLAND        FAIR      58  47  65 S3        30.07S
6HR MIN TEMP:  58; 6HR MAX TEMP:  63;

TROY           CLOUDY    53  50  91 CALM      30.17S
SAGINAW HB     CLOUDY    57  46  67 S9        30.08S
$$
MIZ043>046-050>051-056>058-064>065-071>073-077>080-221300-
SOUTHWEST LOWER MICHIGAN

CITY           SKY/WX    TMP DP  RH WIND       PRES   REMARKS
BATTLE CREEK   CLEAR     60  48  64 S13       30.08R
6HR MIN TEMP:  59; 6HR MAX TEMP:  62;

BENTON HARBOR  CLOUDY    62  49  62 SE8       30.00F
6HR MIN TEMP:  61; 6HR MAX TEMP:  65;

BIG RAPIDS     PTCLDY    56  48  72 SE7       30.01F
6HR MIN TEMP:  55; 6HR MAX TEMP:  60;

COLDWATER      CLEAR     57  46  66 SE6       30.10R
6HR MIN TEMP:  57; 6HR MAX TEMP:  61;

FREMONT        FAIR      62  51  68 S7        30.00S
HOLLAND        CLOUDY    64  51  62 S13G24    30.01F
6HR MIN TEMP:  62; 6HR MAX TEMP:  66;

GRAND RAPIDS   CLOUDY    61  49  64 SE10      30.04S
6HR MIN TEMP:  59; 6HR MAX TEMP:  65;

IONIA          FAIR      59  47  63 S9        30.07R
6HR MIN TEMP:  58; 6HR MAX TEMP:  63;

KALAMAZOO      CLEAR     60  46  59 S6        30.07R
6HR MIN TEMP:  60; 6HR MAX TEMP:  63;

LUDINGTON      PTCLDY    65  54  67 S9G16     29.95S
6HR MIN TEMP:  65; 6HR MAX TEMP:  68;

MARSHALL       CLEAR     58  47  65 S5        30.09R
6HR MIN TEMP:  57; 6HR MAX TEMP:  61;

MOUNT PLEASANT CLEAR     60  46  61 S6        30.05S
6HR MIN TEMP:  59; 6HR MAX TEMP:  62;

MUSKEGON       MOCLDY    65  52  62 SE13      29.98F
6HR MIN TEMP:  65; 6HR MAX TEMP:  69;

SOUTH HAVEN    CLOUDY    64  50  60 S8        30.01F
$$
MIZ016>042-221300-
NORTHERN LOWER MICHIGAN

CITY           SKY/WX    TMP DP  RH WIND       PRES   REMARKS
ALPENA         CLEAR     55  50  83 S7        30.06R
6HR MIN TEMP:  54; 6HR MAX TEMP:  63;

BEAVER ISLAND  PTCLDY    64  53  69 S8G16     29.92S
6HR MIN TEMP:  63; 6HR MAX TEMP:  65;

BELLAIRE       PTCLDY    63  49  61 S9        29.98S
6HR MIN TEMP:  62; 6HR MAX TEMP:  66;

CADILLAC       MOCLDY    63  49  61 S9        30.01S
CHARLEVOIX     CLEAR     63  51  65 S10G16    29.98S
6HR MIN TEMP:  63; 6HR MAX TEMP:  66;

FRANKFORT      PTCLDY    65  53  65 S13       29.94S
GAYLORD        CLEAR     57  48  72 S12       30.02R
6HR MIN TEMP:  57; 6HR MAX TEMP:  62;

GRAYLING       CLEAR     57  46  67 S6        30.04S
6HR MIN TEMP:  56; 6HR MAX TEMP:  61;

HARBOR SPRINGS CLOUDY    63  49  62 CALM      29.97S
HOUGHTON LAKE  CLEAR     57  46  66 S9        30.05S
6HR MIN TEMP:  56; 6HR MAX TEMP:  62;

MANISTEE       CLEAR     62  53  72 SE7       29.95F
OSCODA         CLEAR     60  49  68 S10       30.07S
6HR MIN TEMP:  59; 6HR MAX TEMP:  61;

PELLSTON       CLEAR     61  52  72 SE9       29.97S
6HR MIN TEMP:  61; 6HR MAX TEMP:  67;

ROGERS CITY    CLEAR     58  50  72 S7        30.03S
TRAVERSE CITY  PTCLDY    63  50  62 VRB5      29.96R
6HR MIN TEMP:  63; 6HR MAX TEMP:  68;

$$
MIZ007>008-015-221300-
EASTERN UPPER MICHIGAN

CITY           SKY/WX    TMP DP  RH WIND       PRES   REMARKS
KINROSS        CLOUDY    57  50  77 SE12      29.96F
6HR MIN TEMP:  55; 6HR MAX TEMP:  58;

MACKINAC ISLAN MOCLDY    62  48  60 SE12      29.96S
6HR MIN TEMP:  62; 6HR MAX TEMP:  67;

NEWBERRY       MOCLDY    61  56  85 S15G21    29.91R
6HR MIN TEMP:  58; 6HR MAX TEMP:  62;

S. S. MARIE    MOCLDY    59  51  75 SE8       29.96F
6HR MIN TEMP:  58; 6HR MAX TEMP:  60;

MUNISING         N/A     63  57  81 S9G22     29.81F
6HR MIN TEMP:  63; 6HR MAX TEMP:  64;

$$
MIZ004>006-011>014-085-221300-
CENTRAL UPPER MICHIGAN

CITY           SKY/WX    TMP DP  RH WIND       PRES   REMARKS
MANISTIQUE     CLOUDY    60  54  81 S8        29.88S
6HR MIN TEMP:  60; 6HR MAX TEMP:  62;

ESCANABA       CLEAR     59  56  89 S10       29.85S
6HR MIN TEMP:  59; 6HR MAX TEMP:  61;

MENOMINEE      CLOUDY    61  56  83 S7        29.86R
6HR MIN TEMP:  61; 6HR MAX TEMP:  65;

SAWYER-GWINN   CLEAR     55  55 100 S10       29.82S
$$
MIZ001>003-009>011-084-221300-
WESTERN UPPER MICHIGAN

CITY           SKY/WX    TMP DP  RH WIND       PRES   REMARKS
IRON MOUNTAIN  CLOUDY    62  56  80 S9        29.81R
6HR MIN TEMP:  61; 6HR MAX TEMP:  64; 6HR PCP: TRACE;

HOUGHTON       CLOUDY    54  50  86 W20       29.77R
6HR MIN TEMP:  54; 6HR MAX TEMP:  65;

COPPER HARBOR    N/A     56  52  86 N13       29.75R
6HR MIN TEMP:  56; 6HR MAX TEMP:  64;

IRONWOOD       CLOUDY    51  45  79 SW13G20   29.84R
6HR MIN TEMP:  51; 6HR MAX TEMP:  63; 6HR PCP:  0.02;

$$

ABBREVIATIONS USED IN REMARKS
   TC - TEMPERATURE IN CELSIUS
  WCI - WIND CHILL INDEX
   HX - HEAT INDEX
  VSB - VISIBILITY




USA.gov is the U.S. government's official web portal to all federal, state and local government web resources and services.